Meteo Giornale » Osservazioni meteo Corea del Sud » Yangyang Intl
ore: 17:00 - Osservazioni Meteo Yangyang Intl
Lat. 38° 4' N Lon. 128° 40' E Alt. 74 metri s.l.m.
23 °C
Molto Nuvoloso
Temp. 24 Ore
22 °C
24 °C
Ovest/Sud-Ovest
7.4 Km/h
Dew point 23 °C
Umidità 100 %
Visibilità 10 Km
Il sole sorge alle ore 05:54
Il sole tramonta alle ore 18:56
| Data e Ora | Cielo e Fenomeni | T °C | DP °C | Um. % | Pres. hPa | Vis. km | Vento km/h | |
|---|---|---|---|---|---|---|---|---|
| Oggi h: 17:00 | Molto Nuvoloso | 23 | 23 | 100 | 1012 | 10 | O/SO 7.4 | |
| Oggi h: 16:00 | Pioggia | 23 | 23 | 100 | 1012 | 6 | N 5.5 | |
| Oggi h: 15:00 | Pioggia | 23 | 23 | 100 | 1011 | 8 | E 11.1 | |
| Oggi h: 14:00 | Pioggia | 23 | 23 | 100 | 1012 | 10 | N 5.5 | |
| Oggi h: 13:00 | Pioggia | 23 | 23 | 100 | 1012 | 10 | N 1.8 | |
| Oggi h: 12:00 | Pioggia | 23 | 23 | 100 | 1012 | 10 | N 3.7 | |
| Oggi h: 11:00 | Pioggia | 24 | 24 | 100 | 1012 | 10 | N 3.7 | |
| Oggi h: 10:00 | Coperto | 24 | 23 | 94 | 1012 | 10 | N 5.5 | |
| Oggi h: 09:00 | Molto Nuvoloso | 23 | 23 | 100 | 1011 | 10 | N/NO 13 | |
| Oggi h: 08:00 | Pioggia | 22 | 22 | 100 | 1011 | 10 | N 7.4 | |
| Oggi h: 07:00 | Sereno | 22 | 22 | 100 | 1012 | 10 | O/SO 11.1 | |
| Oggi h: 06:00 | Sereno | 22 | 22 | 100 | 1010 | 10 | O 9.3 | |
| Oggi h: 05:00 | Sereno | 22 | 22 | 100 | 1010 | 10 | O 11.1 | |
| Oggi h: 04:27 | Pioggia | 22 | 22 | 100 | 1010 | 5 | O 9.3 | |
| Oggi h: 04:10 | Pioggia | 22 | 22 | 100 | 1011 | 5 | O 7.4 | |
| Oggi h: 04:00 | Pioggia | 22 | 22 | 100 | 1011 | 9 | O/NO 9.3 | |
| Oggi h: 03:00 | Pioggia | 22 | 22 | 100 | 1010 | 5 | NO 13 | |
| Oggi h: 02:26 | Pioggia | 22 | 22 | 100 | 1010 | 5 | N 5.5 | |
| Oggi h: 02:10 | Pioggia | 22 | 22 | 100 | 1010 | 4 | O 7.4 | |
| Oggi h: 02:00 | Pioggia | 22 | 22 | 100 | 1011 | 9 | O 9.3 | |
| Oggi h: 01:00 | Pioggia | 22 | 22 | 100 | 1010 | 10 | SO 7.4 | |
| Oggi h: 00:00 | Pioggia | 23 | 23 | 100 | 1010 | 10 | O 7.4 | |
| Ieri h: 23:00 | Pioggia | 23 | 23 | 100 | 1011 | 5 | O 7.4 | |
| Ieri h: 22:55 | Pioggia | 23 | 23 | 100 | 1011 | 4 | O/NO 13 | |
| Ieri h: 22:00 | Pioggia | 23 | 23 | 100 | 1011 | 10 | N 5.5 | |
| Ieri h: 21:00 | Pioggia | 23 | 23 | 100 | 1011 | 10 | S 7.4 | |
| Ieri h: 20:00 | Pioggia | 23 | 23 | 100 | 1010 | 10 | N 5.5 | |
| Ieri h: 19:29 | Pioggia | 23 | 23 | 100 | 1010 | 8 | S 7.4 | |
| Ieri h: 19:19 | Pioggia | 23 | 23 | 100 | 1010 | 5 | S 9.3 | |
| Ieri h: 19:00 | Pioggia | 23 | 23 | 100 | 1010 | 10 | N 5.5 | |



